Probability
0 0 0 0 0 0 0 0 0 0 0 0 0 0 0 0 0 0 0 0 0 0 0 0 0 0 0 0 0 0 0 0 0 0 0 0 0 0 0 0 0 0 0
0 0 0 0 0 0 0 0 0 0 0 0 0 0 0 0 0 0 0 0 0 0 0 0 0 0 0 0 0 0 0 0 0 0 0 0 0 0 0 0 0 0 0
0 0 0 0 0 0 0 0 0 0 0 0 0 0 0 0 0 0 0 0 0 0 0 0 0 0 0 0 0 0 0 0 0 0 0 0 0 0 0 0 0 0 0
0 0 0 0 0 0 0 0 0 0 0 0 0 0 0 0 0 0 0 0 0 0 0 0 0 0 0 0 0 0 0 0 0 0 0 0 0 0 0 0 0 0 0
0 0 0 0 0 0 0 0 0 0 0 0 0 0 0 0 0 0 0 0 0 0 0 0 0 0 0 0 0 0 0 0 0 0 0 0 0 0 0 0 0 0 0
0 0 0 0 0 0 0 0 0 0 0 0 0 0 0 0 0 0 0 0 0 0 0 0 0 0 0 0 0 0 0 0 0 0 0 0 0 0 0 0 0 0 0
0 0 0 0 0 0 0 0 0 0 0 0 0 0 0 0 0 0 0 0 0 0 0 0 0 0 0 0 0 0 0 0 0 0 0 0 0 0 0 0 0 0 0
0 0 0 0 0 0 0 0 0 0 0 0 0 0 0 0 0 0 0 0 0 0 0 0 0 0 0 0 0 0 0 0 0 0 0 0 0 0 0 0 0 0 0
0 0 0 0 0 0 0 0 0 0 0 0 0 0 0 0 0 0 0 0 0 0 0 0 0 0 0 0 0 0 0 0 0 0 0 0 0 0 0 0 0 0 0
0 0 0 0 0 0 0 0 0 0 0 0 0 0 0 0 0 0 0 0 0 0 0 0 0 0 0 0 0 0 0 0 0 0 0 0 0 0 0 0 0 0 0
0 0 0 0 0 0 0 0 0 0 0 0 0 0 0 0 0 0 0 0 0 0 0 0 0 0 0 0 0 0 0 0 0 0 0 0 0 0 0 0 0 0 0
0 0 0 0 0 0 0 0 0 0 0 0 0 0 0 0 0 0 0 0 0 0 0 0 0 0 0 0 0 0 0 0 0 0 0 0 0 0 0 0 0 0 0
0 0 0 0 0 0 0 0 0 0 0 0 0 0 0 0 0 0 0 0 0 0 0 0 0 0 0 0 0 0 0 0 0 0 0 0 0 0 0 0 0 0 0
0 0 0 0 0 0 0 0 0 0 0 0 0 0 0 0 0 0 0 0 0 0 0 0 0 0 0 0 0 0 0 0 0 0 0 0 0 0 0 0 0 0 0
0 0 0 0 0 0 0 0 0 0 0 0 0 0 0 0 0 0 0 0 0 0 0 0 0 0 0 0 0 0 0 0 0 0 0 0 0 0 0 0 0 0 0
0 0 0 0 0 0 0 0 0 0 0 0 0 0 0 0 0 0 0 0 0 0 0 0 0 0 0 0 0 0 0 0 0 0 0 0 0 0 0 0 0 0 0
0 0 0 0 0 0 0 0 0 0 0 0 0 0 0 0 0 0 0 0 0 0 0 0 0 0 0 0 0 0 0 0 0 0 0 0 0 0 0 0 0 0 0
0 0 0 0 0 0 0 0 0 0 0 0 0 0 0 0 0 0 0 0 0 0 0 0 0 0 0 0 0 0 0 0 0 0 0 0 0 0 0 0 0 0 0
0 0 0 0 0 0 0 0 0 0 0 0 0 0 0 0 0 0 0 0 0 0 0 0 0 0 0 0 0 0 0 0 0 0 0 0 0 0 0 0 0 0 0
0 0 0 0 0 0 0 0 0 0 0 0 0 0 0 0 0 0 0 0 0 0 0 0 0 0 0 0 0 0 0 0 0 0 0 0 0 0 0 0 0 0 0
0 0 0 0 0 0 0 0 0 0 0 0 0 0 0 0 0 0 0 0 0 0 0 0 0 0 0 0 0 0 0 0 0 0 0 0 0 0 0 0 0 0 0
0 0 0 0 0 0 0 0 0 0 0 0 0 0 0 0 0 0 0 0 0 0 0 0 0 0 0 0 0 0 0 0 0 0 0 0 0 0 0 0 0 0 0
0 0 0 0 0 0 0 0 0 0 0 0 0 0 0 0 0 0 0 0 0 0 0 0 0 0 0 0 0 0 0 0 0 0 0 0 0 0 0 0 0 0 0
0 0 0 0 0 0 0 0 0 0 0 0 0 0 0 0 0 0 0 0 0 0 0 0 0 0 0 0 0 0 0 0 0 0 0 0 0 0 0 0 0 0 0
0 0 0 0 0 0 0 0 0 0 0 0 0 0 0 0 0 0 0 0 0 0 0 0 0 0 0 0 0 0 0 0 0 0 0 0 0 0 0 0 0 0 0
0 0 0 0 0 0 0 0 0 0 0 0 0 0 0 0 0 0 0 0 0 0 0 0 0 0 0 0 0 0 0 0 0 0 0 0 0 0 0 0 0 0 0
Wind_Speed
6 5 5 5 5 6 5 6 6 5 6 7 7 6 6 5 4 3 3 4 5 5 5 6 8 6 6 6 5 5 4 4 4 3 2 3 3 4 3 3 3 4 3
6 6 6 5 5 6 6 6 6 6 5 5 5 5 6 5 5 5 5 5 6 6 6 6 7 6 8 6 6 7 6 5 5 5 3 3 3 4 4 3 2 2 3
6 6 6 6 6 7 6 6 5 5 5 5 5 5 5 5 5 5 5 6 6 7 7 8 8 7 8 7 8 7 6 5 3 5 4 3 3 3 3 3 3 2 2
6 6 7 7 8 7 6 6 6 5 5 5 5 5 5 5 5 5 5 5 5 7 7 8 8 9 10 9 8 8 7 6 5 5 5 4 3 4 3 3 2 1 2
6 7 8 7 6 6 6 6 6 5 6 5 5 4 4 4 5 5 5 5 6 6 6 7 8 11 13 11 9 9 9 8 6 6 5 5 5 5 6 4 3 2 0
7 7 6 6 6 6 6 6 6 5 5 4 5 5 4 4 6 8 7 5 5 6 7 7 7 10 14 17 17 15 15 12 11 8 6 7 9 6 6 5 5 4 3
7 6 6 6 7 7 6 6 6 6 5 5 5 5 4 4 6 6 8 5 5 6 7 6 6 7 11 8 13 15 17 19 18 12 10 9 10 11 11 8 7 5 4
6 6 6 6 6 6 6 6 6 5 5 5 5 5 4 5 7 6 7 5 4 5 6 6 6 6 6 8 7 8 9 12 13 11 10 9 7 9 11 10 8 6 4
5 6 6 6 6 6 7 6 5 5 5 5 4 5 5 5 6 5 4 2 3 4 4 5 6 5 7 9 7 7 7 6 9 10 7 7 11 15 14 9 9 6 3
3 4 4 5 6 7 7 5 4 4 5 5 4 5 5 4 5 5 4 2 3 3 2 3 5 5 6 9 6 6 6 5 5 6 6 8 9 15 20 13 11 8 4
2 1 1 3 5 5 5 5 5 5 5 5 5 3 4 4 4 4 5 3 3 2 2 2 1 3 4 7 6 4 4 4 4 5 5 5 6 7 10 9 8 8 7
3 4 3 1 1 3 4 4 5 6 5 5 4 2 2 2 3 4 6 7 5 3 3 2 1 2 3 4 4 4 4 5 3 4 4 5 6 7 7 8 8 5 5
4 4 4 3 3 2 3 4 4 4 4 3 3 2 2 1 2 4 5 7 7 3 2 2 2 1 2 2 3 3 3 3 3 4 4 5 4 5 6 6 6 5 4
3 3 3 3 3 3 2 2 3 3 4 3 3 2 2 2 2 2 1 2 4 3 2 3 5 5 3 2 2 1 2 3 3 3 3 2 3 5 5 5 5 6 4
2 2 3 3 3 3 3 2 1 1 3 4 3 3 3 3 4 6 4 3 4 4 4 3 2 1 1 0 0 0 1 2 3 2 3 3 4 5 4 5 5 6 6
1 1 1 2 2 3 4 4 8 5 4 2 2 3 3 4 3 4 7 6 8 10 5 2 2 2 2 2 2 1 2 2 2 3 3 4 5 6 5 5 5 6 7
2 1 1 1 2 2 2 3 3 5 8 9 7 5 3 3 3 3 5 7 9 9 3 2 2 2 2 2 2 2 2 2 2 3 4 4 5 5 5 6 7 6 5
2 2 2 2 2 2 2 2 2 2 2 2 5 7 7 8 8 8 9 7 4 3 1 1 2 2 2 3 3 3 3 2 2 3 3 4 4 4 5 6 7 6 5
3 2 2 2 2 2 2 2 2 2 2 2 2 3 6 7 8 7 5 3 2 1 1 1 2 2 2 3 3 3 3 3 3 3 3 3 3 4 4 5 5 7 5
2 4 4 3 2 2 2 2 2 2 2 2 2 2 1 2 2 2 2 1 1 0 1 2 2 3 3 3 3 3 3 3 3 3 3 3 3 3 4 5 5 5 4
2 3 5 3 2 2 2 2 2 3 2 2 2 2 3 1 1 1 0 0 1 1 1 2 2 2 3 3 3 3 4 3 3 3 3 3 3 3 3 4 4 4 4
3 3 2 2 2 2 3 2 3 3 3 3 2 2 3 1 1 0 0 1 1 2 2 2 2 2 3 3 3 3 4 4 4 4 4 4 3 3 3 3 4 4 4
3 3 3 2 2 3 3 3 3 3 3 2 3 2 2 1 0 0 1 1 1 1 1 1 2 2 2 2 3 3 4 4 4 4 4 4 4 4 4 5 5 5 5
3 3 3 3 3 3 3 3 3 2 2 2 2 2 1 1 0 1 1 1 1 1 1 1 1 3 3 3 2 3 3 3 3 4 6 5 5 4 4 4 5 5 5
4 3 3 3 3 3 3 3 3 2 2 2 2 2 1 1 1 1 1 1 1 1 2 2 1 2 3 4 3 3 4 5 5 3 4 4 5 5 5 5 4 5 5
4 4 3 3 3 3 3 3 2 2 2 2 2 2 2 2 2 2 2 2 2 2 3 3 4 4 5 4 5 6 5 5 5 6 4 3 5 5 5 5 6 5 5
Wind_Direction
191 187 186 188 185 180 183 186 177 175 172 170 165 160 153 155 162 171 200 205 216 224 218 215 221 202 199 200 194 188 181 161 164 152 124 129 141 141 105 81 66 43 20
187 183 188 186 180 185 192 191 183 182 181 175 164 159 158 163 175 183 201 213 219 229 226 218 224 205 204 197 193 195 191 174 151 159 152 137 138 142 126 107 75 61 17
179 183 187 188 189 195 195 188 183 180 178 176 168 170 171 176 186 196 199 211 217 225 223 220 220 199 204 198 195 196 191 182 151 147 150 131 127 139 126 99 78 33 18
180 187 196 199 199 199 192 184 183 181 177 180 179 179 175 179 190 199 202 210 218 225 223 220 213 204 206 199 198 196 182 172 157 147 146 141 134 139 143 143 136 75 41
184 197 208 205 197 191 187 183 180 179 185 182 175 182 181 183 197 202 209 215 219 226 226 222 216 213 211 201 197 190 181 178 169 162 157 156 161 167 186 160 148 127 22
195 209 206 194 192 194 190 181 178 180 180 179 182 185 188 197 202 207 206 211 217 226 233 229 222 220 220 212 209 199 189 184 184 176 173 183 190 179 152 158 138 144 210
205 212 202 194 197 199 188 179 185 186 182 186 188 185 193 209 222 226 222 213 216 223 231 230 225 220 214 207 213 208 204 202 192 183 185 190 184 182 169 165 169 163 184
207 214 207 199 203 195 186 190 187 179 184 187 187 189 197 225 234 240 240 220 225 233 231 226 224 226 206 195 190 197 204 208 204 200 201 199 184 172 177 175 157 121 91
218 220 212 203 203 194 197 197 186 178 182 183 183 187 198 232 246 246 224 195 235 251 248 233 221 216 205 187 181 193 203 212 212 205 189 173 170 168 161 142 149 152 167
262 243 219 201 201 205 203 189 178 180 184 175 179 188 198 222 246 250 209 181 229 257 267 249 223 202 182 174 171 179 201 205 182 186 176 169 170 174 173 173 169 170 157
355 343 210 197 201 199 186 175 172 171 167 168 175 187 201 220 250 266 216 180 203 225 245 256 244 199 186 178 170 179 197 171 169 174 171 168 168 176 183 183 180 174 171
49 52 50 75 173 168 165 167 163 160 162 165 166 181 216 239 246 266 242 205 189 193 220 226 234 211 185 187 183 192 182 155 157 172 184 190 190 189 188 185 183 180 173
50 44 39 45 53 104 145 154 154 158 157 165 170 188 228 255 269 268 254 215 194 183 203 202 198 200 186 170 195 199 169 156 166 190 206 207 197 178 162 160 162 156 135
50 36 33 42 47 59 90 134 152 163 158 160 172 198 229 259 255 246 227 178 165 136 102 98 90 90 85 91 91 132 153 169 179 198 209 200 165 165 168 160 160 161 154
49 31 35 42 57 64 65 64 121 169 175 169 186 188 199 232 238 212 183 168 153 142 122 95 85 88 90 82 104 194 202 195 204 196 196 194 190 187 175 163 157 160 176
91 43 44 58 74 86 92 77 55 61 85 127 162 177 214 240 269 227 198 174 154 148 130 136 155 175 202 220 234 241 234 232 228 219 211 207 204 200 186 172 170 175 182
144 137 105 99 104 110 111 111 97 58 56 59 61 75 76 61 63 112 144 144 148 147 126 145 173 196 213 224 232 240 247 249 240 233 228 216 208 201 188 183 183 181 178
138 136 129 123 122 125 129 127 126 122 92 55 46 57 67 71 79 95 110 108 122 133 130 165 193 205 213 221 229 236 248 254 247 243 233 215 200 192 186 184 184 183 172
141 130 122 118 115 118 121 124 125 126 119 107 94 69 72 76 80 89 87 84 121 159 185 209 219 220 224 227 229 232 237 240 238 237 230 211 192 181 184 181 180 176 162
149 151 134 123 114 108 111 122 130 136 135 130 128 119 101 78 76 75 63 76 97 156 221 236 239 234 230 227 224 222 227 232 232 229 226 213 198 191 188 182 177 173 175
139 132 129 118 117 117 114 116 124 130 135 135 140 157 149 116 116 125 145 234 239 244 243 244 245 244 237 225 218 220 225 231 225 222 217 209 199 197 193 185 178 173 168
139 135 133 133 130 122 115 113 116 120 131 135 132 138 154 127 119 132 276 282 267 250 244 241 246 244 236 229 222 221 226 232 227 217 214 205 199 198 188 184 178 172 171
137 133 126 120 121 120 108 101 106 112 119 127 129 126 139 135 80 14 319 299 289 280 267 251 259 268 260 247 235 228 232 233 226 212 208 206 200 197 193 194 190 181 182
137 135 129 121 114 114 112 105 101 104 110 115 119 122 126 115 37 6 350 336 332 317 306 286 272 277 281 268 249 241 244 247 231 218 209 206 203 199 195 198 196 194 189
132 131 130 127 122 119 115 110 105 105 105 106 107 102 93 79 49 26 17 23 25 13 3 355 330 317 317 313 303 281 270 261 251 232 212 206 206 202 198 201 199 195 193
133 130 126 122 119 120 120 117 113 111 103 96 92 89 83 71 52 35 28 33 35 29 24 20 18 20 11 357 349 343 325 293 266 243 223 206 204 205 199 203 203 202 202